QUAO2: Spring River Near Quapaw, OK

Data processed at Sat Dec 09 2017 23:21


All information presented herein is the property of the government of the United States of America and may be revised or deleted at any time without prior notice.
Dissemination of this information without the expressed written consent of the Public Affairs Office, Tulsa District U.S. Army Corps of Engineers is strictly prohibited.
These data are gathered electronically and, as presented, have not undergone any form of quality control. These data are not guaranteed to be valid or correct.
Go to home page.
Go to station list.

Upstream stations:

Downstream station:
Previous Day
Next Day
Current Day
    
SHEF ID:       QUAO2     Spring River near Quapaw, OK
STATION TYPE:  

               PRECIP     STAGE  STAGE(2)  RIV-FLOW  BAT-LOAD
                   in        ft        ft       cfs      volt
              Ccp-Rev   Ccp-Rev   Ccp-Rev   Ccp-Rev   Ccp-Rev
(US/Central)
12/07 00:00      0.00      5.97      5.94       307     12.41
12/07 01:00      0.00      5.97      5.85       307     12.41
12/07 02:00      0.00      5.96      5.85       304     12.41
12/07 03:00      0.00      5.96      5.83       304     12.41
12/07 04:00      0.00      5.96      5.89       304     12.25
12/07 05:00      0.00      5.97      5.82       307     12.25
12/07 06:00      0.00      5.97      5.87       307     12.25
12/07 07:00      0.00      5.97      5.84       307     12.25
12/07 08:00      0.00      5.97      5.86       307     12.17
12/07 09:00      0.00      5.97      5.86       307     12.73
12/07 10:00      0.00      5.97      5.82       307     13.44
12/07 11:00      0.00      5.97      5.83       307     13.53
12/07 12:00      0.00      5.97      5.84       307     13.53
12/07 13:00      0.00      5.96      5.83       304     13.53
12/07 14:00      0.00      5.96      5.83       304     13.53
12/07 15:00      0.00      5.95      5.84       300     13.53
12/07 16:00      0.00      5.94      5.85       297     13.44
12/07 17:00      0.00      5.94      5.92       297     13.21
12/07 18:00      0.00      5.94      5.92       297     12.89
12/07 19:00      0.00      5.94      5.92       297     12.65
12/07 20:00      0.00      5.94      5.91       297     12.49
12/07 21:00      0.00      5.94      5.91       297     12.49
12/07 22:00      0.00      5.93      5.90       293     12.41
12/07 23:00      0.00      5.93      5.90       293     12.41